| time (UTC) | temp C | wind direction | speed KPH | gust KPH | rain 1hr cm | rain 24hr cm | rain mn cm | humidity % | barometer mb |
| 20260505035331 | 4 | 310 | 0.0 | 0.0 | 0.00 | 0.00 | 0.00 | 94 | 1011.9 |
| 20260505034331 | 4 | 310 | 0.0 | 0.0 | 0.00 | 0.00 | 0.00 | 93 | 1012.0 |
| 20260505033331 | 4 | 310 | 0.0 | 0.0 | 0.00 | 0.00 | 0.00 | 94 | 1012.0 |
| 20260505032332 | 4 | 310 | 0.0 | 0.0 | 0.00 | 0.00 | 0.00 | 93 | 1012.0 |
| 20260505030331 | 4 | 310 | 0.0 | 0.0 | 0.00 | 0.00 | 0.00 | 93 | 1011.9 |
| 20260505025332 | 4 | 310 | 0.0 | 0.0 | 0.00 | 0.00 | 0.00 | 93 | 1012.0 |
| 20260505024331 | 4 | 310 | 0.0 | 0.0 | 0.00 | 0.00 | 0.00 | 93 | 1012.0 |
| 20260505023330 | 4 | 310 | 0.0 | 0.0 | 0.00 | 0.00 | 0.00 | 94 | 1012.1 |
| 20260505022850 | 4 | 310 | 0.0 | 3.2 | 0.00 | 0.00 | 0.00 | 94 | 1012.2 |
| 20260505021339 | 4 | 310 | 0.0 | 3.2 | 0.00 | 0.00 | 0.00 | 93 | 1012.1 |
| 20260505020333 | 4 | 310 | 1.6 | 3.2 | 0.00 | 0.00 | 0.00 | 93 | 1012.2 |
| 20260505015340 | 4 | 310 | 0.0 | 3.2 | 0.00 | 0.00 | 0.00 | 93 | 1012.2 |
| 20260505014339 | 4 | 310 | 0.0 | 0.0 | 0.00 | 0.03 | 0.00 | 93 | 1012.2 |
| 20260505013333 | 5 | 310 | 0.0 | 0.0 | 0.00 | 0.03 | 0.00 | 93 | 1012.3 |
| 20260505012346 | 5 | 310 | 0.0 | 3.2 | 0.00 | 0.03 | 0.00 | 93 | 1012.3 |
| 20260505011340 | 5 | 309 | 0.0 | 4.8 | 0.00 | 0.03 | 0.00 | 93 | 1012.4 |
| 20260505005340 | 5 | 309 | 1.6 | 4.8 | 0.00 | 0.03 | 0.00 | 92 | 1012.4 |
| 20260505004333 | 5 | 309 | 3.2 | 4.8 | 0.00 | 0.03 | 0.00 | 92 | 1012.4 |
| 20260505003334 | 5 | 309 | 3.2 | 4.8 | 0.00 | 0.03 | 0.00 | 92 | 1012.5 |
| 20260505002819 | 5 | 309 | 3.2 | 4.8 | 0.00 | 0.03 | 0.00 | 92 | 1012.6 |
| 20260505001813 | 5 | 309 | 3.2 | 4.8 | 0.00 | 0.03 | 0.00 | 91 | 1012.6 |
| 20260505000806 | 5 | 309 | 3.2 | 4.8 | 0.00 | 0.03 | 0.00 | 91 | 1012.7 |
| 20260504235333 | 5 | 309 | 3.2 | 4.8 | 0.00 | 0.03 | 0.00 | 91 | 1012.6 |
| 20260504234333 | 5 | 309 | 3.2 | 4.8 | 0.00 | 0.03 | 0.00 | 90 | 1012.5 |
| 20260504233331 | 6 | 309 | 0.0 | 0.0 | 0.00 | 0.03 | 0.00 | 90 | 1012.7 |
| 20260504232331 | 6 | 309 | 0.0 | 0.0 | 0.00 | 0.03 | 0.00 | 90 | 1012.7 |
| 20260504231331 | 6 | 309 | 0.0 | 0.0 | 0.00 | 0.03 | 0.00 | 89 | 1012.7 |
| 20260504230331 | 6 | 309 | 0.0 | 0.0 | 0.00 | 0.03 | 0.00 | 89 | 1012.8 |
| 20260504225332 | 6 | 309 | 0.0 | 3.2 | 0.00 | 0.03 | 0.00 | 88 | 1012.8 |
| 20260504224813 | 6 | 309 | 1.6 | 6.4 | 0.00 | 0.03 | 0.00 | 88 | 1013.0 |
| 20260504222338 | 6 | 310 | 3.2 | 4.8 | 0.00 | 0.03 | 0.00 | 87 | 1013.0 |
| 20260504221320 | 6 | 310 | 3.2 | 6.4 | 0.00 | 0.03 | 0.00 | 87 | 1013.1 |
| 20260504220320 | 7 | 313 | 4.8 | 6.4 | 0.00 | 0.03 | 0.00 | 86 | 1013.0 |
| 20260504215312 | 7 | 315 | 3.2 | 4.8 | 0.00 | 0.03 | 0.03 | 86 | 1013.1 |
| 20260504214308 | 7 | 315 | 3.2 | 4.8 | 0.00 | 0.03 | 0.03 | 86 | 1013.2 |
| 20260504213304 | 7 | 315 | 1.6 | 4.8 | 0.00 | 0.03 | 0.03 | 85 | 1013.3 |
| 20260504212304 | 7 | 315 | 0.0 | 3.2 | 0.00 | 0.03 | 0.03 | 84 | 1013.3 |
| 20260504211303 | 7 | 315 | 3.2 | 6.4 | 0.00 | 0.03 | 0.03 | 84 | 1013.3 |
| 20260504210743 | 8 | 296 | 3.2 | 6.4 | 0.00 | 0.03 | 0.03 | 84 | 1013.3 |
| 20260504205304 | 8 | 294 | 4.8 | 8.0 | 0.00 | 0.03 | 0.03 | 84 | 1013.1 |
| 20260504204303 | 8 | 292 | 6.4 | 6.4 | 0.00 | 0.03 | 0.03 | 84 | 1013.1 |
| 20260504203303 | 8 | 284 | 3.2 | 4.8 | 0.00 | 0.03 | 0.03 | 85 | 1013.1 |
| 20260504202305 | 8 | 282 | 3.2 | 4.8 | 0.00 | 0.03 | 0.03 | 84 | 1013.2 |
| 20260504201303 | 8 | 282 | 1.6 | 3.2 | 0.00 | 0.03 | 0.03 | 83 | 1013.1 |
| 20260504200741 | 9 | 282 | 1.6 | 4.8 | 0.00 | 0.05 | 0.03 | 82 | 1013.0 |
| 20260504195304 | 9 | 282 | 0.0 | 4.8 | 0.00 | 0.05 | 0.03 | 81 | 1012.8 |
| 20260504194301 | 10 | 281 | 1.6 | 11.3 | 0.00 | 0.13 | 0.03 | 80 | 1012.6 |
| 20260504193257 | 10 | 282 | 3.2 | 6.4 | 0.00 | 0.15 | 0.03 | 79 | 1012.7 |
| 20260504192254 | 10 | 281 | 1.6 | 8.0 | 0.00 | 0.15 | 0.03 | 78 | 1012.7 |
| 20260504191735 | 10 | 297 | 4.8 | 6.4 | 0.00 | 0.15 | 0.03 | 77 | 1012.7 |
| 20260504190247 | 11 | 296 | 1.6 | 6.4 | 0.00 | 0.15 | 0.03 | 75 | 1012.6 |
| 20260504185715 | 11 | 298 | 4.8 | 6.4 | 0.00 | 0.15 | 0.03 | 74 | 1012.6 |
| 20260504184720 | 11 | 298 | 3.2 | 6.4 | 0.00 | 0.15 | 0.03 | 73 | 1012.5 |
| 20260504183232 | 11 | 305 | 3.2 | 12.9 | 0.00 | 0.15 | 0.03 | 72 | 1012.5 |
| 20260504182232 | 12 | 306 | 3.2 | 12.9 | 0.00 | 0.15 | 0.03 | 71 | 1012.5 |
| 20260504181233 | 12 | 316 | 4.8 | 11.3 | 0.00 | 0.15 | 0.03 | 71 | 1012.4 |
| 20260504180231 | 12 | 284 | 4.8 | 14.5 | 0.00 | 0.43 | 0.03 | 71 | 1012.5 |
| 20260504175232 | 12 | 325 | 4.8 | 14.5 | 0.00 | 0.79 | 0.03 | 71 | 1012.4 |
| 20260504174231 | 13 | 321 | 6.4 | 14.5 | 0.00 | 0.81 | 0.03 | 71 | 1012.4 |
| 20260504173232 | 13 | 295 | 6.4 | 14.5 | 0.00 | 0.81 | 0.03 | 70 | 1012.4 |
| 20260504172707 | 13 | 279 | 6.4 | 14.5 | 0.00 | 0.81 | 0.03 | 70 | 1012.4 |
| 20260504171231 | 13 | 279 | 6.4 | 14.5 | 0.00 | 0.81 | 0.03 | 71 | 1012.4 |
| 20260504170241 | 13 | 321 | 8.0 | 16.1 | 0.00 | 0.81 | 0.03 | 70 | 1012.4 |
| 20260504160232 | 15 | 319 | 8.0 | 16.1 | 0.00 | 1.07 | 0.03 | 66 | 1012.5 |
| 20260504150232 | 15 | 275 | 8.0 | 14.5 | 0.00 | 1.07 | 0.03 | 69 | 1012.8 |
| 20260504141231 | 15 | 294 | 9.7 | 19.3 | 0.00 | 1.07 | 0.03 | 67 | 1012.9 |
| 20260504140232 | 15 | 244 | 11.3 | 19.3 | 0.00 | 1.07 | 0.03 | 68 | 1012.9 |
| 20260504130232 | 14 | 0 | 9.7 | 17.7 | 0.00 | 1.07 | 0.03 | 73 | 1013.1 |
| 20260504120239 | 13 | 278 | 9.7 | 20.9 | 0.00 | 1.07 | 0.03 | 74 | 1013.0 |
| 20260504110231 | 13 | 220 | 4.8 | 22.5 | 0.00 | 1.07 | 0.03 | 76 | 1012.8 |
| 20260504081232 | 11 | 271 | 6.4 | 16.1 | 0.00 | 1.07 | 0.03 | 85 | 1012.1 |
| 20260504080231 | 11 | 259 | 9.7 | 19.3 | 0.00 | 1.07 | 0.03 | 85 | 1012.1 |
| 20260504070233 | 11 | 293 | 8.0 | 17.7 | 0.00 | 1.07 | 0.03 | 86 | 1011.7 |
| 20260504060242 | 11 | 236 | 14.5 | 22.5 | 0.00 | 1.07 | 0.03 | 85 | 1011.0 |
| 20260504050232 | 10 | 297 | 4.8 | 16.1 | 0.00 | 1.07 | 0.03 | 91 | 1010.3 |
| 20260504045231 | 10 | 296 | 6.4 | 19.3 | 0.00 | 1.07 | 0.03 | 91 | 1010.2 |
| 20260504044240 | 10 | 333 | 8.0 | 22.5 | 0.00 | 1.07 | 0.03 | 91 | 1010.1 |
| 20260504043708 | 10 | 333 | 6.4 | 19.3 | 0.00 | 1.07 | 0.03 | 92 | 1009.9 |
| 20260504042231 | 10 | 306 | 8.0 | 22.5 | 0.00 | 1.07 | 0.03 | 92 | 1009.9 |
| 20260504041239 | 10 | 301 | 11.3 | 30.6 | 0.00 | 1.07 | 0.03 | 93 | 1009.9 |
| 20260504040232 | 10 | 333 | 6.4 | 20.9 | 0.00 | 1.07 | 0.03 | 94 | 1009.7 |